Time,TemperatureF,DewpointF,PressureIn,WindDirection,WindDirectionDegrees,WindSpeedMPH,WindSpeedGustMPH,Humidity,HourlyPrecipIn,Conditions,Clouds,dailyrainin,SoftwareType,DateUTC
2013-04-27 00:00:00,72.8,70.7,30.02,ENE,77,5.0,5.0,93,0.00,,,0.00,Wunderground v.1.15,2013-04-27 05:00:00,
2013-04-27 00:10:00,72.9,70.8,30.02,ESE,105,5.0,9.0,93,0.00,,,0.00,Wunderground v.1.15,2013-04-27 05:10:00,
2013-04-27 00:15:00,72.9,70.8,30.03,ESE,117,5.0,9.0,93,0.00,,,0.00,Wunderground v.1.15,2013-04-27 05:15:00,
2013-04-27 00:20:00,72.8,70.7,30.03,SE,131,4.0,4.0,93,0.00,,,0.00,Wunderground v.1.15,2013-04-27 05:20:00,
2013-04-27 00:25:00,72.8,70.7,30.03,SE,145,4.0,5.0,93,0.00,,,0.00,Wunderground v.1.15,2013-04-27 05:25:00,
2013-04-27 00:30:00,72.9,70.8,30.03,ESE,112,5.0,6.0,93,0.00,,,0.00,Wunderground v.1.15,2013-04-27 05:30:00,
2013-04-27 00:35:00,72.9,70.8,30.03,East,85,5.0,6.0,93,0.00,,,0.00,Wunderground v.1.15,2013-04-27 05:35:00,
2013-04-27 00:40:00,72.8,70.7,30.03,South,184,4.0,4.0,93,0.00,,,0.00,Wunderground v.1.15,2013-04-27 05:40:00,
2013-04-27 00:50:00,72.8,70.7,30.03,SSE,149,5.0,5.0,93,0.00,,,0.00,Wunderground v.1.15,2013-04-27 05:50:00,
2013-04-27 00:55:00,72.8,70.7,30.03,SSE,150,4.0,5.0,93,0.00,,,0.00,Wunderground v.1.15,2013-04-27 05:55:00,
2013-04-27 01:00:00,72.8,70.7,30.03,SW,225,4.0,4.0,93,0.00,,,0.00,Wunderground v.1.15,2013-04-27 06:00:00,
2013-04-27 01:10:00,72.7,70.6,30.03,SE,143,3.0,3.0,93,0.00,,,0.00,Wunderground v.1.15,2013-04-27 06:10:00,
2013-04-27 01:20:00,72.7,70.6,30.03,South,170,4.0,5.0,93,0.00,,,0.00,Wunderground v.1.15,2013-04-27 06:20:00,
2013-04-27 01:25:00,72.6,70.5,30.02,SE,128,4.0,5.0,93,0.00,,,0.00,Wunderground v.1.15,2013-04-27 06:25:00,
2013-04-27 01:30:00,72.6,70.5,30.02,SSW,204,3.0,4.0,93,0.00,,,0.00,Wunderground v.1.15,2013-04-27 06:30:00,
2013-04-27 01:35:00,72.6,70.5,30.01,SE,145,3.0,4.0,93,0.00,,,0.00,Wunderground v.1.15,2013-04-27 06:35:00,
2013-04-27 01:40:00,72.6,70.5,30.01,SSE,153,4.0,6.0,93,0.00,,,0.00,Wunderground v.1.15,2013-04-27 06:40:00,
2013-04-27 01:45:00,72.6,70.5,30.01,South,188,4.0,6.0,93,0.00,,,0.00,Wunderground v.1.15,2013-04-27 06:45:00,
2013-04-27 01:55:00,72.6,70.5,30.00,SSW,195,4.0,4.0,93,0.00,,,0.00,Wunderground v.1.15,2013-04-27 06:55:00,
2013-04-27 02:00:00,72.5,70.4,30.00,ESE,114,4.0,5.0,93,0.00,,,0.00,Wunderground v.1.15,2013-04-27 07:00:00,
2013-04-27 02:10:00,72.5,70.4,30.00,SSE,147,4.0,4.0,93,0.00,,,0.00,Wunderground v.1.15,2013-04-27 07:10:00,
2013-04-27 02:15:00,72.5,70.4,30.00,ESE,118,4.0,7.0,93,0.00,,,0.00,Wunderground v.1.15,2013-04-27 07:15:00,
2013-04-27 02:25:00,72.5,70.7,29.99,SSE,147,4.0,5.0,94,0.00,,,0.00,Wunderground v.1.15,2013-04-27 07:25:00,
2013-04-27 02:30:00,72.4,70.6,29.99,SSW,204,4.0,4.0,94,0.00,,,0.00,Wunderground v.1.15,2013-04-27 07:30:00,
2013-04-27 02:35:00,72.4,70.6,29.99,SE,131,4.0,6.0,94,0.00,,,0.00,Wunderground v.1.15,2013-04-27 07:35:00,
2013-04-27 02:40:00,72.4,70.6,29.99,SSE,160,4.0,6.0,94,0.00,,,0.00,Wunderground v.1.15,2013-04-27 07:40:00,
2013-04-27 02:45:00,72.4,70.6,29.99,South,181,4.0,9.0,94,0.00,,,0.00,Wunderground v.1.15,2013-04-27 07:45:00,
2013-04-27 02:50:00,72.4,70.6,29.98,SSW,198,4.0,4.0,94,0.00,,,0.00,Wunderground v.1.15,2013-04-27 07:50:00,
2013-04-27 03:00:00,72.4,70.6,29.98,SE,143,3.0,3.0,94,0.00,,,0.00,Wunderground v.1.15,2013-04-27 08:00:00,
2013-04-27 03:10:00,72.3,70.5,29.98,SSW,197,3.0,5.0,94,0.00,,,0.00,Wunderground v.1.15,2013-04-27 08:10:00,
2013-04-27 03:15:00,72.4,70.6,29.98,SSE,154,3.0,5.0,94,0.00,,,0.00,Wunderground v.1.15,2013-04-27 08:15:00,
2013-04-27 03:20:00,72.4,70.6,29.98,South,174,3.0,3.0,94,0.00,,,0.00,Wunderground v.1.15,2013-04-27 08:20:00,
2013-04-27 03:25:00,72.4,70.6,29.97,South,181,4.0,4.0,94,0.00,,,0.00,Wunderground v.1.15,2013-04-27 08:25:00,
2013-04-27 03:30:00,72.4,70.6,29.97,East,96,4.0,5.0,94,0.00,,,0.00,Wunderground v.1.15,2013-04-27 08:30:00,
2013-04-27 03:35:00,72.4,70.6,29.97,East,86,3.0,5.0,94,0.00,,,0.00,Wunderground v.1.15,2013-04-27 08:35:00,
2013-04-27 03:40:00,72.4,70.6,29.97,SE,131,3.0,5.0,94,0.00,,,0.00,Wunderground v.1.15,2013-04-27 08:40:00,
2013-04-27 03:45:00,72.5,70.7,29.97,SSE,151,3.0,5.0,94,0.00,,,0.00,Wunderground v.1.15,2013-04-27 08:45:00,
2013-04-27 03:50:00,72.5,70.7,29.96,East,89,2.0,2.0,94,0.00,,,0.00,Wunderground v.1.15,2013-04-27 08:50:00,
2013-04-27 03:55:00,72.5,70.7,29.96,South,170,2.0,3.0,94,0.00,,,0.00,Wunderground v.1.15,2013-04-27 08:55:00,
2013-04-27 04:00:00,72.5,70.7,29.96,ESE,120,2.0,2.0,94,0.00,,,0.00,Wunderground v.1.15,2013-04-27 09:00:00,
2013-04-27 04:10:00,72.5,70.7,29.95,SSE,164,3.0,3.0,94,0.00,,,0.00,Wunderground v.1.15,2013-04-27 09:10:00,
2013-04-27 04:15:00,72.5,70.7,29.95,SSE,166,3.0,4.0,94,0.00,,,0.00,Wunderground v.1.15,2013-04-27 09:15:00,
2013-04-27 04:20:00,72.5,70.7,29.95,ESE,118,4.0,4.0,94,0.00,,,0.00,Wunderground v.1.15,2013-04-27 09:20:00,
2013-04-27 04:25:00,72.5,70.7,29.95,ESE,120,4.0,4.0,94,0.00,,,0.00,Wunderground v.1.15,2013-04-27 09:25:00,
2013-04-27 04:35:00,72.5,70.7,29.95,ESE,121,3.0,3.0,94,0.00,,,0.00,Wunderground v.1.15,2013-04-27 09:35:00,
2013-04-27 04:40:00,72.5,70.7,29.94,South,181,4.0,4.0,94,0.00,,,0.00,Wunderground v.1.15,2013-04-27 09:40:00,
2013-04-27 04:45:00,72.5,70.7,29.94,SSE,158,3.0,4.0,94,0.00,,,0.00,Wunderground v.1.15,2013-04-27 09:45:00,
2013-04-27 04:50:00,72.5,70.7,29.94,SW,214,4.0,4.0,94,0.00,,,0.00,Wunderground v.1.15,2013-04-27 09:50:00,
2013-04-27 04:55:00,72.5,70.7,29.94,ESE,121,4.0,4.0,94,0.00,,,0.00,Wunderground v.1.15,2013-04-27 09:55:00,
2013-04-27 05:00:00,72.5,70.7,29.94,SE,124,4.0,8.0,94,0.00,,,0.00,Wunderground v.1.15,2013-04-27 10:00:00,
2013-04-27 05:10:00,72.5,70.7,29.94,SSW,210,5.0,5.0,94,0.00,,,0.00,Wunderground v.1.15,2013-04-27 10:10:00,
2013-04-27 05:15:00,72.5,70.7,29.94,SSE,166,4.0,5.0,94,0.00,,,0.00,Wunderground v.1.15,2013-04-27 10:15:00,
2013-04-27 05:20:00,72.5,70.7,29.94,SSE,164,3.0,3.0,94,0.00,,,0.00,Wunderground v.1.15,2013-04-27 10:20:00,
2013-04-27 05:25:00,72.5,70.7,29.94,ESE,120,3.0,3.0,94,0.00,,,0.00,Wunderground v.1.15,2013-04-27 10:25:00,
2013-04-27 05:30:00,72.5,70.7,29.94,SSE,151,3.0,3.0,94,0.00,,,0.00,Wunderground v.1.15,2013-04-27 10:30:00,
2013-04-27 05:40:00,72.5,70.7,29.95,SE,137,3.0,3.0,94,0.00,,,0.00,Wunderground v.1.15,2013-04-27 10:40:00,
2013-04-27 05:45:00,72.5,70.7,29.95,South,174,2.0,3.0,94,0.00,,,0.00,Wunderground v.1.15,2013-04-27 10:45:00,
2013-04-27 05:50:00,72.5,70.7,29.95,SE,134,3.0,3.0,94,0.00,,,0.00,Wunderground v.1.15,2013-04-27 10:50:00,
2013-04-27 05:55:00,72.5,70.7,29.95,SSE,152,3.0,3.0,94,0.00,,,0.00,Wunderground v.1.15,2013-04-27 10:55:00,
2013-04-27 06:00:00,72.5,70.7,29.95,South,191,3.0,3.0,94,0.00,,,0.00,Wunderground v.1.15,2013-04-27 11:00:00,
2013-04-27 06:10:00,72.5,70.7,29.96,South,172,2.0,2.0,94,0.00,,,0.00,Wunderground v.1.15,2013-04-27 11:10:00,
2013-04-27 06:15:00,72.5,70.7,29.96,SSE,151,2.0,2.0,94,0.00,,,0.00,Wunderground v.1.15,2013-04-27 11:15:00,
2013-04-27 06:20:00,72.5,70.7,29.96,ESE,119,2.0,3.0,94,0.00,,,0.00,Wunderground v.1.15,2013-04-27 11:20:00,
2013-04-27 06:25:00,72.4,70.6,29.96,SE,125,3.0,3.0,94,0.00,,,0.00,Wunderground v.1.15,2013-04-27 11:25:00,
2013-04-27 06:30:00,72.5,70.7,29.96,SE,143,2.0,2.0,94,0.00,,,0.00,Wunderground v.1.15,2013-04-27 11:30:00,
2013-04-27 06:35:00,72.5,70.7,29.96,East,85,2.0,2.0,94,0.00,,,0.00,Wunderground v.1.15,2013-04-27 11:35:00,
2013-04-27 06:45:00,72.5,70.7,29.96,SSE,156,3.0,4.0,94,0.00,,,0.00,Wunderground v.1.15,2013-04-27 11:45:00,
2013-04-27 06:50:00,72.5,70.7,29.96,South,169,3.0,3.0,94,0.00,,,0.00,Wunderground v.1.15,2013-04-27 11:50:00,
2013-04-27 06:55:00,72.4,70.6,29.97,SSE,153,2.0,6.0,94,0.00,,,0.00,Wunderground v.1.15,2013-04-27 11:55:00,
2013-04-27 07:00:00,72.4,70.6,29.97,ESE,121,3.0,3.0,94,0.00,,,0.00,Wunderground v.1.15,2013-04-27 12:00:00,
2013-04-27 07:10:00,72.3,70.5,29.97,SE,136,3.0,4.0,94,0.00,,,0.00,Wunderground v.1.15,2013-04-27 12:10:00,
2013-04-27 07:20:00,72.3,70.5,29.97,ESE,123,2.0,2.0,94,0.00,,,0.00,Wunderground v.1.15,2013-04-27 12:20:00,
2013-04-27 07:25:00,72.3,70.8,29.97,SSE,155,2.0,2.0,95,0.00,,,0.00,Wunderground v.1.15,2013-04-27 12:25:00,
2013-04-27 07:30:00,72.2,70.7,29.97,SSW,206,2.0,3.0,95,0.00,,,0.00,Wunderground v.1.15,2013-04-27 12:30:00,
2013-04-27 07:35:00,72.2,70.7,29.97,SE,131,3.0,7.0,95,0.00,,,0.00,Wunderground v.1.15,2013-04-27 12:35:00,
2013-04-27 07:40:00,72.2,70.7,29.97,SE,143,3.0,3.0,95,0.00,,,0.00,Wunderground v.1.15,2013-04-27 12:40:00,
2013-04-27 07:50:00,72.2,70.7,29.98,South,180,3.0,3.0,95,0.00,,,0.00,Wunderground v.1.15,2013-04-27 12:50:00,
2013-04-27 07:55:00,72.2,70.7,29.98,ESE,108,3.0,3.0,95,0.00,,,0.00,Wunderground v.1.15,2013-04-27 12:55:00,
2013-04-27 08:00:00,72.2,70.7,29.98,SE,134,2.0,2.0,95,0.00,,,0.00,Wunderground v.1.15,2013-04-27 13:00:00,
2013-04-27 08:10:00,72.2,70.7,29.98,ESE,114,2.0,2.0,95,0.00,,,0.00,Wunderground v.1.15,2013-04-27 13:10:00,
2013-04-27 08:15:00,72.2,70.7,29.99,ESE,112,2.0,2.0,95,0.00,,,0.00,Wunderground v.1.15,2013-04-27 13:15:00,
2013-04-27 08:20:00,72.3,70.8,29.99,South,169,2.0,6.0,95,0.00,,,0.00,Wunderground v.1.15,2013-04-27 13:20:00,
2013-04-27 08:25:00,72.3,70.8,29.99,SE,136,3.0,6.0,95,0.00,,,0.00,Wunderground v.1.15,2013-04-27 13:25:00,
2013-04-27 08:30:00,72.4,70.6,29.99,South,180,3.0,4.0,94,0.00,,,0.00,Wunderground v.1.15,2013-04-27 13:30:00,
2013-04-27 08:35:00,72.5,70.7,29.99,SSE,165,3.0,4.0,94,0.00,,,0.00,Wunderground v.1.15,2013-04-27 13:35:00,
2013-04-27 08:40:00,72.6,70.8,29.99,South,174,3.0,3.0,94,0.00,,,0.00,Wunderground v.1.15,2013-04-27 13:40:00,
2013-04-27 08:50:00,72.8,71.0,29.99,South,169,3.0,3.0,94,0.00,,,0.00,Wunderground v.1.15,2013-04-27 13:50:00,
2013-04-27 09:00:00,73.0,70.9,29.99,SE,124,3.0,6.0,93,0.00,,,0.00,Wunderground v.1.15,2013-04-27 14:00:00,
2013-04-27 09:10:00,73.1,71.0,29.99,SSE,164,3.0,4.0,93,0.00,,,0.00,Wunderground v.1.15,2013-04-27 14:10:00,
2013-04-27 09:15:00,73.2,71.1,30.00,SSE,166,3.0,4.0,93,0.00,,,0.00,Wunderground v.1.15,2013-04-27 14:15:00,
2013-04-27 09:20:00,73.2,71.1,30.00,ESE,122,3.0,3.0,93,0.00,,,0.00,Wunderground v.1.15,2013-04-27 14:20:00,
2013-04-27 09:25:00,73.3,70.8,30.00,SSW,201,3.0,7.0,92,0.00,,,0.00,Wunderground v.1.15,2013-04-27 14:25:00,
2013-04-27 09:35:00,73.5,71.0,30.00,South,170,5.0,5.0,92,0.00,,,0.00,Wunderground v.1.15,2013-04-27 14:35:00,
2013-04-27 09:40:00,73.7,71.2,30.00,SE,138,3.0,3.0,92,0.00,,,0.00,Wunderground v.1.15,2013-04-27 14:40:00,
2013-04-27 09:45:00,74.0,71.5,30.00,SE,136,3.0,3.0,92,0.00,,,0.00,Wunderground v.1.15,2013-04-27 14:45:00,
2013-04-27 09:50:00,74.1,71.3,30.00,SSE,163,3.0,3.0,91,0.00,,,0.00,Wunderground v.1.15,2013-04-27 14:50:00,
2013-04-27 09:55:00,74.3,71.5,30.00,SSE,159,3.0,3.0,91,0.00,,,0.00,Wunderground v.1.15,2013-04-27 14:55:00,
2013-04-27 10:00:00,74.4,71.3,30.01,SSE,167,3.0,5.0,90,0.00,,,0.00,Wunderground v.1.15,2013-04-27 15:00:00,
2013-04-27 10:10:00,74.6,71.1,30.01,SSE,162,4.0,4.0,89,0.00,,,0.00,Wunderground v.1.15,2013-04-27 15:10:00,
2013-04-27 10:15:00,74.6,71.1,30.00,SE,140,4.0,4.0,89,0.00,,,0.00,Wunderground v.1.15,2013-04-27 15:15:00,
2013-04-27 10:20:00,74.7,71.2,30.01,SSE,155,3.0,5.0,89,0.00,,,0.00,Wunderground v.1.15,2013-04-27 15:20:00,
2013-04-27 10:25:00,74.8,71.3,30.01,SSW,198,3.0,5.0,89,0.00,,,0.00,Wunderground v.1.15,2013-04-27 15:25:00,
2013-04-27 10:30:00,75.0,71.2,30.01,ESE,119,4.0,4.0,88,0.00,,,0.00,Wunderground v.1.15,2013-04-27 15:30:00,
2013-04-27 10:40:00,75.1,71.0,30.01,SE,134,4.0,4.0,87,0.00,,,0.00,Wunderground v.1.15,2013-04-27 15:40:00,
2013-04-27 10:45:00,75.2,71.1,30.01,SE,127,4.0,7.0,87,0.00,,,0.00,Wunderground v.1.15,2013-04-27 15:45:00,
2013-04-27 10:50:00,75.3,71.2,30.01,ESE,119,3.0,9.0,87,0.00,,,0.00,Wunderground v.1.15,2013-04-27 15:50:00,
2013-04-27 10:55:00,75.3,71.2,30.01,East,93,3.0,9.0,87,0.00,,,0.00,Wunderground v.1.15,2013-04-27 15:55:00,
2013-04-27 11:00:00,75.4,71.3,30.01,East,96,3.0,3.0,87,0.00,,,0.00,Wunderground v.1.15,2013-04-27 16:00:00,
2013-04-27 11:10:00,75.5,71.4,30.01,ESE,122,3.0,3.0,87,0.00,,,0.00,Wunderground v.1.15,2013-04-27 16:10:00,
2013-04-27 11:15:00,75.5,71.4,30.01,ESE,107,4.0,4.0,87,0.00,,,0.00,Wunderground v.1.15,2013-04-27 16:15:00,
2013-04-27 11:20:00,75.7,71.6,30.01,East,90,4.0,4.0,87,0.00,,,0.00,Wunderground v.1.15,2013-04-27 16:20:00,
2013-04-27 11:25:00,75.8,71.3,30.01,SE,134,4.0,5.0,86,0.00,,,0.00,Wunderground v.1.15,2013-04-27 16:25:00,
2013-04-27 11:30:00,76.0,71.5,30.01,East,101,5.0,6.0,86,0.00,,,0.00,Wunderground v.1.15,2013-04-27 16:30:00,
2013-04-27 11:35:00,76.2,71.4,30.01,East,88,5.0,6.0,85,0.00,,,0.00,Wunderground v.1.15,2013-04-27 16:35:00,
2013-04-27 11:45:00,76.5,71.7,30.01,SE,124,5.0,5.0,85,0.00,,,0.00,Wunderground v.1.15,2013-04-27 16:45:00,
2013-04-27 11:50:00,76.6,71.4,30.01,East,96,4.0,4.0,84,0.00,,,0.00,Wunderground v.1.15,2013-04-27 16:50:00,
2013-04-27 11:55:00,76.9,71.7,30.01,East,90,5.0,5.0,84,0.00,,,0.00,Wunderground v.1.15,2013-04-27 16:55:00,
2013-04-27 12:00:00,77.2,71.6,30.01,SE,129,5.0,5.0,83,0.00,,,0.00,Wunderground v.1.15,2013-04-27 17:00:00,
2013-04-27 12:10:00,77.6,72.0,30.01,SSE,152,6.0,6.0,83,0.00,,,0.00,Wunderground v.1.15,2013-04-27 17:10:00,
2013-04-27 12:20:00,77.4,71.8,30.01,SE,143,6.0,7.0,83,0.00,,,0.00,Wunderground v.1.15,2013-04-27 17:20:00,
2013-04-27 12:25:00,77.2,71.6,30.01,East,99,6.0,7.0,83,0.00,,,0.00,Wunderground v.1.15,2013-04-27 17:25:00,
2013-04-27 12:30:00,76.7,71.5,30.01,ENE,78,6.0,11.0,84,0.00,,,0.00,Wunderground v.1.15,2013-04-27 17:30:00,
2013-04-27 12:35:00,76.1,71.6,30.01,ESE,119,6.0,11.0,86,0.00,,,0.00,Wunderground v.1.15,2013-04-27 17:35:00,
2013-04-27 12:40:00,76.0,71.5,30.01,SE,138,6.0,6.0,86,0.00,,,0.00,Wunderground v.1.15,2013-04-27 17:40:00,
2013-04-27 12:50:00,76.2,71.7,30.00,East,94,5.0,6.0,86,0.00,,,0.00,Wunderground v.1.15,2013-04-27 17:50:00,
2013-04-27 12:55:00,76.0,71.5,30.00,ESE,113,5.0,6.0,86,0.00,,,0.00,Wunderground v.1.15,2013-04-27 17:55:00,
2013-04-27 13:00:00,76.0,71.5,30.00,East,101,6.0,6.0,86,0.00,,,0.00,Wunderground v.1.15,2013-04-27 18:00:00,
2013-04-27 13:10:00,76.0,71.5,30.00,ESE,109,6.0,6.0,86,0.00,,,0.00,Wunderground v.1.15,2013-04-27 18:10:00,
2013-04-27 13:15:00,76.1,71.6,30.00,SSE,148,5.0,6.0,86,0.00,,,0.00,Wunderground v.1.15,2013-04-27 18:15:00,
2013-04-27 13:25:00,76.3,71.8,29.99,ESE,120,6.0,6.0,86,0.00,,,0.00,Wunderground v.1.15,2013-04-27 18:25:00,
2013-04-27 13:30:00,76.2,71.4,29.99,SE,131,7.0,7.0,85,0.00,,,0.00,Wunderground v.1.15,2013-04-27 18:30:00,
2013-04-27 13:35:00,76.2,71.7,29.99,SE,136,7.0,7.0,86,0.00,,,0.00,Wunderground v.1.15,2013-04-27 18:35:00,
2013-04-27 13:40:00,76.1,71.6,29.99,ESE,118,7.0,7.0,86,0.00,,,0.00,Wunderground v.1.15,2013-04-27 18:40:00,
2013-04-27 13:45:00,75.9,71.4,29.99,SE,146,7.0,7.0,86,0.00,,,0.00,Wunderground v.1.15,2013-04-27 18:45:00,
2013-04-27 13:55:00,75.7,71.6,29.99,ESE,111,6.0,7.0,87,0.00,,,0.00,Wunderground v.1.15,2013-04-27 18:55:00,
2013-04-27 14:00:00,75.8,71.3,29.99,East,98,5.0,5.0,86,0.00,,,0.00,Wunderground v.1.15,2013-04-27 19:00:00,
2013-04-27 14:10:00,76.0,71.5,29.98,East,99,6.0,7.0,86,0.00,,,0.00,Wunderground v.1.15,2013-04-27 19:10:00,
2013-04-27 14:15:00,76.0,71.5,29.98,SSE,148,6.0,10.0,86,0.00,,,0.00,Wunderground v.1.15,2013-04-27 19:15:00,
2013-04-27 14:20:00,76.0,71.5,29.98,East,94,6.0,10.0,86,0.00,,,0.00,Wunderground v.1.15,2013-04-27 19:20:00,
2013-04-27 14:30:00,76.1,71.6,29.98,South,180,6.0,6.0,86,0.00,,,0.00,Wunderground v.1.15,2013-04-27 19:30:00,
2013-04-27 14:35:00,77.0,72.1,29.97,ESE,122,7.0,9.0,85,0.00,,,0.00,Wunderground v.1.15,2013-04-27 19:35:00,
2013-04-27 14:40:00,77.7,72.5,29.97,SE,143,7.0,8.0,84,0.00,,,0.00,Wunderground v.1.15,2013-04-27 19:40:00,
2013-04-27 14:45:00,77.9,72.0,29.96,SE,130,9.0,10.0,82,0.00,,,0.00,Wunderground v.1.15,2013-04-27 19:45:00,
2013-04-27 14:50:00,78.1,72.2,29.96,ESE,122,8.0,8.0,82,0.00,,,0.00,Wunderground v.1.15,2013-04-27 19:50:00,
2013-04-27 15:00:00,77.9,72.0,29.96,East,98,7.0,7.0,82,0.00,,,0.00,Wunderground v.1.15,2013-04-27 20:00:00,
2013-04-27 15:10:00,77.4,71.8,29.95,ESE,117,9.0,10.0,83,0.00,,,0.00,Wunderground v.1.15,2013-04-27 20:10:00,
2013-04-27 15:15:00,77.5,71.9,29.94,South,173,8.0,10.0,83,0.00,,,0.00,Wunderground v.1.15,2013-04-27 20:15:00,
2013-04-27 15:20:00,77.5,71.9,29.94,East,101,7.0,7.0,83,0.00,,,0.00,Wunderground v.1.15,2013-04-27 20:20:00,
2013-04-27 15:25:00,77.7,72.1,29.94,East,82,6.0,8.0,83,0.00,,,0.00,Wunderground v.1.15,2013-04-27 20:25:00,
2013-04-27 15:35:00,78.3,71.6,29.94,ESE,116,6.0,10.0,80,0.00,,,0.00,Wunderground v.1.15,2013-04-27 20:35:00,
2013-04-27 15:40:00,78.3,71.6,29.94,SE,125,7.0,9.0,80,0.00,,,0.00,Wunderground v.1.15,2013-04-27 20:40:00,
2013-04-27 15:45:00,78.1,71.8,29.94,East,94,8.0,9.0,81,0.00,,,0.00,Wunderground v.1.15,2013-04-27 20:45:00,
2013-04-27 15:50:00,78.3,71.6,29.93,ESE,117,8.0,11.0,80,0.00,,,0.00,Wunderground v.1.15,2013-04-27 20:50:00,
2013-04-27 15:55:00,78.0,71.7,29.93,East,93,8.0,11.0,81,0.00,,,0.00,Wunderground v.1.15,2013-04-27 20:55:00,
2013-04-27 16:00:00,77.8,71.5,29.93,East,83,8.0,11.0,81,0.00,,,0.00,Wunderground v.1.15,2013-04-27 21:00:00,
2013-04-27 16:10:00,77.8,71.9,29.92,SSE,150,8.0,8.0,82,0.00,,,0.00,Wunderground v.1.15,2013-04-27 21:10:00,
2013-04-27 16:15:00,77.7,71.8,29.92,East,96,8.0,8.0,82,0.00,,,0.00,Wunderground v.1.15,2013-04-27 21:15:00,
2013-04-27 16:20:00,77.8,71.9,29.92,SE,139,7.0,8.0,82,0.00,,,0.00,Wunderground v.1.15,2013-04-27 21:20:00,
2013-04-27 16:25:00,77.9,72.0,29.92,SE,143,6.0,8.0,82,0.00,,,0.00,Wunderground v.1.15,2013-04-27 21:25:00,
2013-04-27 16:30:00,78.1,71.8,29.91,ESE,109,7.0,12.0,81,0.00,,,0.00,Wunderground v.1.15,2013-04-27 21:30:00,
2013-04-27 16:40:00,78.3,72.0,29.91,SE,124,7.0,13.0,81,0.00,,,0.00,Wunderground v.1.15,2013-04-27 21:40:00,
2013-04-27 16:45:00,78.1,71.8,29.91,ENE,68,8.0,13.0,81,0.00,,,0.00,Wunderground v.1.15,2013-04-27 21:45:00,
2013-04-27 16:50:00,77.9,71.6,29.91,East,96,9.0,9.0,81,0.00,,,0.00,Wunderground v.1.15,2013-04-27 21:50:00,
2013-04-27 16:55:00,77.9,71.6,29.91,ESE,113,8.0,9.0,81,0.00,,,0.00,Wunderground v.1.15,2013-04-27 21:55:00,
2013-04-27 17:00:00,78.0,71.3,29.90,East,94,8.0,8.0,80,0.00,,,0.00,Wunderground v.1.15,2013-04-27 22:00:00,
2013-04-27 17:10:00,77.9,71.2,29.90,SE,131,9.0,9.0,80,0.00,,,0.00,Wunderground v.1.15,2013-04-27 22:10:00,
2013-04-27 17:15:00,77.5,71.2,29.90,ESE,107,8.0,10.0,81,0.00,,,0.00,Wunderground v.1.15,2013-04-27 22:15:00,
2013-04-27 17:20:00,77.5,71.6,29.89,ESE,117,7.0,7.0,82,0.00,,,0.00,Wunderground v.1.15,2013-04-27 22:20:00,
2013-04-27 17:25:00,77.7,71.8,29.89,SSE,149,7.0,7.0,82,0.00,,,0.00,Wunderground v.1.15,2013-04-27 22:25:00,
2013-04-27 17:30:00,77.7,71.8,29.89,SE,128,7.0,8.0,82,0.00,,,0.00,Wunderground v.1.15,2013-04-27 22:30:00,
2013-04-27 17:35:00,77.5,71.6,29.89,East,98,8.0,8.0,82,0.00,,,0.00,Wunderground v.1.15,2013-04-27 22:35:00,
2013-04-27 17:45:00,77.6,71.3,29.90,ESE,114,6.0,11.0,81,0.00,,,0.00,Wunderground v.1.15,2013-04-27 22:45:00,
2013-04-27 17:50:00,77.5,71.2,29.90,SE,130,6.0,6.0,81,0.00,,,0.00,Wunderground v.1.15,2013-04-27 22:50:00,
2013-04-27 17:55:00,77.6,71.3,29.89,SSE,153,5.0,6.0,81,0.00,,,0.00,Wunderground v.1.15,2013-04-27 22:55:00,
2013-04-27 18:00:00,77.6,71.3,29.89,ESE,105,4.0,4.0,81,0.00,,,0.00,Wunderground v.1.15,2013-04-27 23:00:00,
2013-04-27 18:10:00,77.5,71.2,29.89,SE,141,5.0,5.0,81,0.00,,,0.00,Wunderground v.1.15,2013-04-27 23:10:00,
2013-04-27 18:15:00,77.7,71.0,29.89,East,98,5.0,5.0,80,0.00,,,0.00,Wunderground v.1.15,2013-04-27 23:15:00,
2013-04-27 18:20:00,77.5,70.8,29.89,ESE,107,6.0,6.0,80,0.00,,,0.00,Wunderground v.1.15,2013-04-27 23:20:00,
2013-04-27 18:25:00,77.5,70.8,29.89,SSE,151,6.0,6.0,80,0.00,,,0.00,Wunderground v.1.15,2013-04-27 23:25:00,
2013-04-27 18:30:00,77.3,71.0,29.89,South,176,5.0,5.0,81,0.00,,,0.00,Wunderground v.1.15,2013-04-27 23:30:00,
2013-04-27 18:35:00,77.1,70.8,29.89,ENE,65,5.0,9.0,81,0.00,,,0.00,Wunderground v.1.15,2013-04-27 23:35:00,
2013-04-27 18:40:00,76.8,70.9,29.89,ESE,110,6.0,6.0,82,0.00,,,0.00,Wunderground v.1.15,2013-04-27 23:40:00,
2013-04-27 18:50:00,76.4,70.9,29.89,SE,134,5.0,6.0,83,0.00,,,0.00,Wunderground v.1.15,2013-04-27 23:50:00,
2013-04-27 18:55:00,76.2,70.7,29.89,ESE,116,5.0,12.0,83,0.00,,,0.00,Wunderground v.1.15,2013-04-27 23:55:00,
2013-04-27 19:00:00,76.0,70.8,29.89,SE,144,6.0,6.0,84,0.00,,,0.00,Wunderground v.1.15,2013-04-28 00:00:00,
2013-04-27 19:10:00,75.7,70.9,29.89,ESE,115,4.0,4.0,85,0.00,,,0.00,Wunderground v.1.15,2013-04-28 00:10:00,
2013-04-27 19:15:00,75.7,70.9,29.89,East,88,3.0,4.0,85,0.00,,,0.00,Wunderground v.1.15,2013-04-28 00:15:00,
2013-04-27 19:20:00,75.5,70.7,29.89,SE,134,4.0,4.0,85,0.00,,,0.00,Wunderground v.1.15,2013-04-28 00:20:00,
2013-04-27 19:25:00,75.3,70.8,29.89,East,94,4.0,6.0,86,0.00,,,0.00,Wunderground v.1.15,2013-04-28 00:25:00,
2013-04-27 19:30:00,75.1,71.0,29.89,SE,143,5.0,6.0,87,0.00,,,0.00,Wunderground v.1.15,2013-04-28 00:30:00,
2013-04-27 19:35:00,74.9,70.8,29.89,NE,35,5.0,6.0,87,0.00,,,0.00,Wunderground v.1.15,2013-04-28 00:35:00,
2013-04-27 19:40:00,74.7,70.9,29.89,ENE,73,4.0,4.0,88,0.00,,,0.00,Wunderground v.1.15,2013-04-28 00:40:00,
2013-04-27 19:45:00,74.5,70.7,29.89,ESE,113,4.0,4.0,88,0.00,,,0.00,Wunderground v.1.15,2013-04-28 00:45:00,
2013-04-27 19:55:00,74.0,70.6,29.88,SE,131,4.0,7.0,89,0.00,,,0.00,Wunderground v.1.15,2013-04-28 00:55:00,
2013-04-27 20:00:00,73.8,70.7,29.88,ESE,115,5.0,5.0,90,0.00,,,0.00,Wunderground v.1.15,2013-04-28 01:00:00,
2013-04-27 20:10:00,73.6,70.5,29.88,East,87,5.0,5.0,90,0.00,,,0.00,Wunderground v.1.15,2013-04-28 01:10:00,
2013-04-27 20:15:00,73.5,70.4,29.87,East,100,4.0,5.0,90,0.00,,,0.00,Wunderground v.1.15,2013-04-28 01:15:00,
2013-04-27 20:20:00,73.3,70.5,29.87,East,97,3.0,3.0,91,0.00,,,0.00,Wunderground v.1.15,2013-04-28 01:20:00,
2013-04-27 20:25:00,73.0,70.2,29.87,East,81,4.0,4.0,91,0.00,,,0.00,Wunderground v.1.15,2013-04-28 01:25:00,
2013-04-27 20:30:00,72.8,70.0,29.88,ENE,65,3.0,3.0,91,0.00,,,0.00,Wunderground v.1.15,2013-04-28 01:30:00,
2013-04-27 20:35:00,72.6,70.1,29.88,East,94,4.0,4.0,92,0.00,,,0.00,Wunderground v.1.15,2013-04-28 01:35:00,
2013-04-27 20:40:00,72.5,70.0,29.88,ESE,106,5.0,5.0,92,0.00,,,0.00,Wunderground v.1.15,2013-04-28 01:40:00,
2013-04-27 20:45:00,72.4,69.9,29.88,NE,47,4.0,5.0,92,0.00,,,0.00,Wunderground v.1.15,2013-04-28 01:45:00,
2013-04-27 20:50:00,72.4,69.9,29.89,East,82,4.0,5.0,92,0.00,,,0.00,Wunderground v.1.15,2013-04-28 01:50:00,
2013-04-27 20:55:00,72.4,70.3,29.89,East,98,4.0,5.0,93,0.00,,,0.00,Wunderground v.1.15,2013-04-28 01:55:00,
2013-04-27 21:00:00,72.3,70.2,29.90,East,89,5.0,5.0,93,0.00,,,0.00,Wunderground v.1.15,2013-04-28 02:00:00,
2013-04-27 21:10:00,72.3,70.2,29.90,East,99,5.0,8.0,93,0.00,,,0.00,Wunderground v.1.15,2013-04-28 02:10:00,
2013-04-27 21:15:00,72.3,70.2,29.91,East,81,5.0,8.0,93,0.00,,,0.00,Wunderground v.1.15,2013-04-28 02:15:00,
2013-04-27 21:20:00,72.3,70.2,29.92,ESE,108,4.0,4.0,93,0.00,,,0.00,Wunderground v.1.15,2013-04-28 02:20:00,
2013-04-27 21:25:00,72.3,70.2,29.92,East,96,4.0,4.0,93,0.00,,,0.00,Wunderground v.1.15,2013-04-28 02:25:00,
2013-04-27 21:35:00,72.2,70.1,29.92,ESE,113,5.0,9.0,93,0.00,,,0.00,Wunderground v.1.15,2013-04-28 02:35:00,
2013-04-27 21:40:00,72.2,70.1,29.92,ESE,102,6.0,6.0,93,0.00,,,0.00,Wunderground v.1.15,2013-04-28 02:40:00,
2013-04-27 21:45:00,72.2,70.4,29.93,ENE,65,5.0,6.0,94,0.00,,,0.00,Wunderground v.1.15,2013-04-28 02:45:00,
2013-04-27 21:50:00,72.2,70.4,29.93,ENE,58,5.0,5.0,94,0.00,,,0.00,Wunderground v.1.15,2013-04-28 02:50:00,
2013-04-27 21:55:00,72.2,70.4,29.94,ESE,102,5.0,6.0,94,0.00,,,0.00,Wunderground v.1.15,2013-04-28 02:55:00,
2013-04-27 22:00:00,72.2,70.4,29.95,ESE,113,5.0,5.0,94,0.00,,,0.00,Wunderground v.1.15,2013-04-28 03:00:00,
2013-04-27 22:10:00,72.2,70.4,29.96,ENE,75,3.0,3.0,94,0.00,,,0.00,Wunderground v.1.15,2013-04-28 03:10:00,
2013-04-27 22:15:00,72.2,70.4,29.96,East,100,3.0,4.0,94,0.00,,,0.00,Wunderground v.1.15,2013-04-28 03:15:00,
2013-04-27 22:20:00,72.1,70.3,29.96,ESE,110,3.0,3.0,94,0.00,,,0.00,Wunderground v.1.15,2013-04-28 03:20:00,
2013-04-27 22:25:00,72.1,70.3,29.96,ESE,119,3.0,3.0,94,0.00,,,0.00,Wunderground v.1.15,2013-04-28 03:25:00,
2013-04-27 22:30:00,72.1,70.3,29.95,ESE,120,3.0,4.0,94,0.00,,,0.00,Wunderground v.1.15,2013-04-28 03:30:00,
2013-04-27 22:40:00,72.0,70.2,29.95,East,94,4.0,4.0,94,0.00,,,0.00,Wunderground v.1.15,2013-04-28 03:40:00,
2013-04-27 22:45:00,72.0,70.2,29.95,East,91,4.0,6.0,94,0.00,,,0.00,Wunderground v.1.15,2013-04-28 03:45:00,
2013-04-27 22:50:00,72.0,70.2,29.95,SE,131,4.0,4.0,94,0.00,,,0.00,Wunderground v.1.15,2013-04-28 03:50:00,
2013-04-27 22:55:00,72.0,70.2,29.95,SE,128,3.0,4.0,94,0.00,,,0.00,Wunderground v.1.15,2013-04-28 03:55:00,
2013-04-27 23:00:00,72.0,70.2,29.95,East,85,3.0,3.0,94,0.00,,,0.00,Wunderground v.1.15,2013-04-28 04:00:00,
2013-04-27 23:05:00,72.0,70.2,29.95,East,93,2.0,3.0,94,0.00,,,0.00,Wunderground v.1.15,2013-04-28 04:05:00,
2013-04-27 23:10:00,72.1,70.3,29.95,SE,143,2.0,4.0,94,0.00,,,0.00,Wunderground v.1.15,2013-04-28 04:10:00,
2013-04-27 23:15:00,72.2,70.4,29.96,South,181,2.0,4.0,94,0.00,,,0.00,Wunderground v.1.15,2013-04-28 04:15:00,
2013-04-27 23:20:00,72.3,70.5,29.96,SSW,195,2.0,2.0,94,0.00,,,0.00,Wunderground v.1.15,2013-04-28 04:20:00,
2013-04-27 23:25:00,72.4,70.6,29.96,ESE,122,2.0,2.0,94,0.00,,,0.00,Wunderground v.1.15,2013-04-28 04:25:00,
2013-04-27 23:30:00,72.5,70.7,29.95,South,181,2.0,2.0,94,0.00,,,0.00,Wunderground v.1.15,2013-04-28 04:30:00,
2013-04-27 23:35:00,72.6,70.8,29.95,ESE,117,2.0,2.0,94,0.00,,,0.00,Wunderground v.1.15,2013-04-28 04:35:00,
2013-04-27 23:45:00,72.7,70.9,29.94,SSE,154,2.0,6.0,94,0.00,,,0.00,Wunderground v.1.15,2013-04-28 04:45:00,
2013-04-27 23:50:00,72.7,70.9,29.94,ESE,119,4.0,4.0,94,0.00,,,0.00,Wunderground v.1.15,2013-04-28 04:50:00,
2013-04-27 23:55:00,72.7,70.6,29.95,South,170,3.0,4.0,93,0.00,,,0.00,Wunderground v.1.15,2013-04-28 04:55:00,